| time (UTC) | temp F | wind direction | speed knots | gust knots | rain 1hr in | rain 24hr in | rain mn in | humidity % | barometer mb |
| 20260506001544 | 54 | 72 | 0.0 | 0.0 | 0.00 | 0.03 | 0.00 | 82 | 1006.6 |
| 20260505234543 | 55 | 90 | 0.0 | 1.7 | 0.00 | 0.03 | 0.00 | 81 | 1006.8 |
| 20260505233033 | 55 | 61 | 0.0 | 2.6 | 0.00 | 0.03 | 0.00 | 79 | 1006.9 |
| 20260505231530 | 56 | 85 | 0.0 | 1.7 | 0.00 | 0.03 | 0.00 | 78 | 1007.1 |
| 20260505230049 | 56 | 85 | 0.9 | 2.6 | 0.00 | 0.03 | 0.00 | 76 | 1007.1 |
| 20260505224536 | 56 | 227 | 0.0 | 4.3 | 0.00 | 0.03 | 0.00 | 76 | 1007.2 |
| 20260505223026 | 56 | 179 | 0.0 | 4.3 | 0.00 | 0.03 | 0.00 | 77 | 1007.2 |
| 20260505221522 | 56 | 218 | 0.0 | 0.0 | 0.00 | 0.03 | 0.00 | 78 | 1007.3 |
| 20260505220019 | 57 | 218 | 0.0 | 2.6 | 0.00 | 0.03 | 0.00 | 77 | 1007.3 |
| 20260505214522 | 57 | 213 | 0.0 | 3.5 | 0.00 | 0.03 | 0.03 | 77 | 1007.2 |
| 20260505213019 | 57 | 204 | 0.9 | 6.1 | 0.00 | 0.03 | 0.03 | 77 | 1007.2 |
| 20260505211526 | 57 | 172 | 0.9 | 5.2 | 0.00 | 0.03 | 0.03 | 79 | 1007.2 |
| 20260505210017 | 57 | 143 | 1.7 | 7.0 | 0.00 | 0.03 | 0.03 | 80 | 1007.2 |
| 20260505204515 | 57 | 175 | 1.7 | 7.8 | 0.00 | 0.03 | 0.03 | 80 | 1007.3 |
| 20260505203015 | 58 | 172 | 1.7 | 6.1 | 0.00 | 0.03 | 0.03 | 80 | 1007.2 |
| 20260505201514 | 58 | 120 | 1.7 | 7.8 | 0.00 | 0.03 | 0.03 | 81 | 1007.1 |
| 20260505200014 | 58 | 220 | 0.9 | 5.2 | 0.00 | 0.03 | 0.03 | 81 | 1007.0 |
| 20260505194515 | 58 | 151 | 2.6 | 6.1 | 0.00 | 0.03 | 0.03 | 80 | 1006.9 |
| 20260505193015 | 58 | 182 | 3.5 | 8.7 | 0.00 | 0.03 | 0.03 | 79 | 1006.8 |
| 20260505191512 | 59 | 212 | 1.7 | 7.8 | 0.00 | 0.03 | 0.03 | 78 | 1006.7 |
| 20260505190014 | 59 | 146 | 1.7 | 7.0 | 0.00 | 0.03 | 0.03 | 79 | 1006.6 |
| 20260505184517 | 59 | 227 | 1.7 | 7.8 | 0.00 | 0.03 | 0.03 | 79 | 1006.4 |
| 20260505183011 | 60 | 192 | 0.9 | 7.8 | 0.00 | 0.03 | 0.03 | 78 | 1006.3 |
| 20260505181510 | 61 | 239 | 1.7 | 10.4 | 0.00 | 0.03 | 0.03 | 77 | 1006.4 |
| 20260505180011 | 62 | 208 | 2.6 | 6.1 | 0.00 | 0.03 | 0.03 | 73 | 1006.2 |
| 20260505174508 | 62 | 118 | 0.9 | 6.1 | 0.00 | 0.04 | 0.03 | 71 | 1006.1 |
| 20260505173008 | 63 | 212 | 1.7 | 7.8 | 0.00 | 0.04 | 0.03 | 70 | 1006.0 |
| 20260505171507 | 62 | 192 | 2.6 | 9.6 | 0.00 | 0.04 | 0.03 | 71 | 1006.1 |
| 20260505170009 | 62 | 162 | 3.5 | 8.7 | 0.00 | 0.04 | 0.03 | 70 | 1006.2 |
| 20260505164505 | 62 | 201 | 2.6 | 7.8 | 0.00 | 0.04 | 0.03 | 72 | 1006.1 |
| 20260505163004 | 61 | 159 | 4.3 | 9.6 | 0.00 | 0.04 | 0.03 | 76 | 1006.2 |
| 20260505161504 | 60 | 159 | 0.9 | 7.8 | 0.00 | 0.04 | 0.03 | 82 | 1005.9 |
| 20260505153003 | 59 | 208 | 2.6 | 5.2 | 0.03 | 0.04 | 0.03 | 86 | 1006.2 |
| 20260505151502 | 59 | 224 | 0.9 | 6.1 | 0.03 | 0.04 | 0.03 | 85 | 1006.1 |
| 20260505124552 | 65 | 321 | 0.0 | 1.7 | 0.00 | 0.01 | 0.00 | 68 | 1006.4 |
| 20260505123050 | 64 | 336 | 0.0 | 0.0 | 0.00 | 0.01 | 0.00 | 71 | 1006.5 |
| 20260505121610 | 63 | 255 | 0.0 | 0.0 | 0.00 | 0.01 | 0.00 | 73 | 1006.6 |
| 20260505120033 | 62 | 227 | 0.0 | 0.0 | 0.00 | 0.01 | 0.00 | 74 | 1006.7 |
| 20260505114534 | 62 | 254 | 0.0 | 0.0 | 0.00 | 0.01 | 0.00 | 74 | 1006.9 |
| 20260505113031 | 62 | 222 | 0.0 | 0.0 | 0.00 | 0.01 | 0.00 | 75 | 1007.0 |
| 20260505111535 | 62 | 272 | 0.0 | 0.0 | 0.00 | 0.01 | 0.00 | 75 | 1007.1 |
| 20260505101524 | 61 | 324 | 0.0 | 0.0 | 0.00 | 0.01 | 0.00 | 78 | 1007.2 |
| 20260505100034 | 61 | 322 | 0.0 | 0.0 | 0.00 | 0.01 | 0.00 | 79 | 1007.2 |
| 20260505094523 | 61 | 321 | 0.0 | 0.0 | 0.00 | 0.01 | 0.00 | 77 | 1007.2 |
| 20260505093028 | 61 | 345 | 0.0 | 0.0 | 0.00 | 0.01 | 0.00 | 77 | 1007.1 |
| 20260505091527 | 61 | 347 | 0.0 | 0.0 | 0.00 | 0.01 | 0.00 | 78 | 1007.3 |
| 20260505090020 | 61 | 329 | 0.0 | 0.0 | 0.00 | 0.01 | 0.00 | 83 | 1007.5 |
| 20260505084518 | 61 | 324 | 0.0 | 0.0 | 0.00 | 0.01 | 0.00 | 83 | 1007.6 |
| 20260505083015 | 60 | 321 | 0.0 | 0.0 | 0.00 | 0.01 | 0.00 | 83 | 1007.7 |
| 20260505081515 | 60 | 319 | 0.0 | 0.0 | 0.00 | 0.01 | 0.00 | 84 | 1007.8 |
| 20260505080011 | 59 | 319 | 0.0 | 0.0 | 0.00 | 0.01 | 0.00 | 86 | 1007.9 |
| 20260505074509 | 59 | 334 | 0.0 | 0.0 | 0.00 | 0.01 | 0.00 | 87 | 1007.9 |
| 20260505073003 | 58 | 337 | 0.0 | 0.0 | 0.00 | 0.01 | 0.00 | 89 | 1008.0 |
| 20260505071600 | 57 | 225 | 0.0 | 0.0 | 0.00 | 0.01 | 0.00 | 89 | 1008.1 |
| 20260505070104 | 56 | 225 | 0.0 | 0.0 | 0.00 | 0.01 | 0.00 | 91 | 1008.2 |
| 20260505064607 | 56 | 225 | 0.0 | 0.0 | 0.00 | 0.01 | 0.00 | 91 | 1008.3 |
| 20260505063053 | 55 | 225 | 0.0 | 0.0 | 0.00 | 0.01 | 0.00 | 91 | 1008.3 |
| 20260505061551 | 55 | 225 | 0.0 | 0.0 | 0.00 | 0.01 | 0.00 | 91 | 1008.5 |
| 20260505060049 | 54 | 213 | 0.0 | 0.0 | 0.00 | 0.01 | 0.00 | 91 | 1008.5 |
| 20260505054614 | 54 | 218 | 0.0 | 0.0 | 0.00 | 0.01 | 0.00 | 91 | 1008.6 |
| 20260505053050 | 54 | 221 | 0.0 | 0.0 | 0.00 | 0.01 | 0.00 | 90 | 1008.5 |
| 20260505051546 | 54 | 234 | 0.0 | 0.0 | 0.00 | 0.01 | 0.00 | 90 | 1008.4 |
| 20260505041548 | 53 | 36 | 0.0 | 0.0 | 0.00 | 0.01 | 0.00 | 87 | 1008.3 |
| 20260505040042 | 53 | 36 | 0.0 | 0.0 | 0.00 | 0.01 | 0.00 | 87 | 1008.3 |
| 20260505034538 | 53 | 36 | 0.0 | 0.0 | 0.00 | 0.01 | 0.00 | 88 | 1008.2 |
| 20260505033037 | 53 | 62 | 0.0 | 0.0 | 0.00 | 0.01 | 0.00 | 88 | 1008.3 |
| 20260505031539 | 54 | 31 | 0.0 | 0.0 | 0.00 | 0.01 | 0.00 | 88 | 1008.4 |
| 20260505030038 | 54 | 30 | 0.0 | 0.0 | 0.00 | 0.01 | 0.00 | 88 | 1008.5 |
| 20260505024530 | 54 | 30 | 0.0 | 0.0 | 0.00 | 0.01 | 0.00 | 89 | 1008.6 |
| 20260505023028 | 54 | 30 | 0.0 | 0.0 | 0.00 | 0.01 | 0.00 | 89 | 1008.8 |
| 20260505021525 | 54 | 30 | 0.0 | 0.0 | 0.00 | 0.01 | 0.00 | 88 | 1008.9 |
| 20260505020029 | 55 | 25 | 0.0 | 0.0 | 0.00 | 0.01 | 0.00 | 88 | 1009.1 |
| 20260505014523 | 55 | 74 | 0.0 | 0.0 | 0.00 | 0.01 | 0.00 | 87 | 1009.1 |
| 20260505013021 | 55 | 74 | 0.0 | 0.0 | 0.00 | 0.01 | 0.00 | 87 | 1009.4 |
| 20260505011520 | 55 | 74 | 0.0 | 0.0 | 0.00 | 0.01 | 0.00 | 86 | 1009.3 |
| 20260505010017 | 55 | 43 | 0.0 | 0.0 | 0.00 | 0.01 | 0.00 | 86 | 1009.5 |
| 20260505004514 | 55 | 101 | 0.0 | 0.0 | 0.00 | 0.01 | 0.00 | 85 | 1009.7 |
| 20260505003012 | 55 | 101 | 0.0 | 0.0 | 0.00 | 0.01 | 0.00 | 86 | 1009.9 |